GCGM

La Gomera Airport

Airport
ICAO code
GCGM
IATA Code
GMZ
Summary
ICAO Region
EUR
ICAO Territory
Location

Playa Santiago, La Gomera, Canary Islands

Serving
San Sebastián de la Gomera
Elevation
716 ft
Coordinates
28° 1' 50" N , 17° 12' 45" W
KCC
Metar
GCGM 130100Z AUTO 25007KT 210V280 CAVOK 24/16 Q1014 RMK R09/26005KT ARP/25006KT 210V270

La Gomera Airport is the only airport on the small island of La Gomera in the Canary Islands which is situated to the west of Tenerife.

Climatology

Dry-summer subtropical ”Mediterranean" climate (Köppen climate classification Csa) - characterized by hot, dry summers and mild winters. During the summer, subtropical high pressure cells dominate, making rainfall unlikely except for the occasional thunderstorm. In the winter, periodic storms bring rain (snow at higher elevations).

Runways

Designator Length Width Surface Rops
9/27 1500 30 ASP No/No

Airport map

Aerial View

SKYbrary Partners:

Safety knowledge contributed by: